Voltar ao catálogo

FENGYUN 1C DEB

AtivoPO
NORAD 37476·DEBRIS·🇨🇳 China

Lançado May 10, 1999 de Taiyuan Satellite Launch Center

Loading…

Próximas Passagens (próximas 24 horas)

TLE

EnvelhecendoSource: Space-Track

Época: Sep 9, 2026, 17:03 UTC

1 37476U 99025EJW 26252.71050988  .00000533  00000-0  14328-2 0  9998
2 37476  98.9468 196.7121 1075798  58.7928 311.4091 11.91550176706701

Acompanhe FENGYUN 1C DEB em tempo real com AllMySat

Download on the App Store